Location: Zagreb
(45.8000°N, 16.0000°E)
Time: 14:40:11
(UTC+02:00)

Vanguard 2 Rocket - Pass Details

Date: 18 July 2024
Orbit: 556 x 3291 km, 32.9° (Epoch: 19 July)

Event Time Altitude Azimuth Distance (km) Brightness Sun altitude
Rises 04:05:57 0° 261° (W) 5,970 10.6 -11.3°
Enters shadow 04:07:24 - 257° (WSW) 5,860 10.5 -11.2°
Exits shadow 04:18:44 10° 219° (SW) 5,823 10.3 -9.8°
Drops below altitude 10° 04:20:36 10° 213° (SSW) 5,940 10.4 -9.5°
Sets 04:33:19 0° 180° (S) 7,263 11.1 -7.9°
